This is the latest recevied weather packets stored in our database for station/object KE5VBO-1. If no packets are shown the sender has not sent any weather packets the latest 10 day(s).
| Time | Temp. | Humidity | Pressure | Rain* | Wind** | Luminosity | Snow |
|---|---|---|---|---|---|---|---|
| 1777861865 | 20.56° C | 50% | 1013.9 hPa | 0 mm | - | - | - |
| 1777860940 | 20.56° C | 48% | 1013.9 hPa | 0 mm | - | - | - |
| 1777860093 | 20.56° C | 46% | 1013.7 hPa | 0 mm | - | - | - |
| 1777859136 | 21.67° C | 44% | 1013.7 hPa | 0 mm | - | - | - |
| 1777858296 | 22.22° C | 42% | 1013.6 hPa | 0 mm | - | - | - |
| 1777857325 | 22.78° C | 42% | 1013.5 hPa | 0 mm | - | - | - |
| 1777856449 | 22.78° C | 40% | 1013.4 hPa | 0 mm | - | - | - |
| 1777855511 | 23.33° C | 39% | 1013.4 hPa | 0 mm | - | - | - |
| 1777854644 | 23.89° C | 38% | 1013.5 hPa | 0 mm | - | - | - |
| 1777853721 | 24.44° C | 38% | 1013.6 hPa | 0 mm | - | - | - |
| 1777852845 | 25° C | 38% | 1013.7 hPa | 0 mm | - | - | - |
| 1777851906 | 25° C | 36% | 1013.7 hPa | 0 mm | - | - | - |
| 1777851040 | 25.56° C | 35% | 1013.8 hPa | 0 mm | - | - | - |
| 1777850175 | 26.11° C | 36% | 1013.9 hPa | 0 mm | - | - | - |
| 1777849243 | 26.67° C | 36% | 1013.9 hPa | 0 mm | - | - | - |
| 1777848307 | 26.67° C | 35% | 1014 hPa | 0 mm | - | - | - |
| 1777847437 | 27.22° C | 36% | 1014.1 hPa | 0 mm | - | - | - |
| 1777846571 | 27.22° C | 35% | 1014.2 hPa | 0 mm | - | - | - |
| 1777845628 | 27.78° C | 33% | 1014.3 hPa | 0 mm | - | - | - |
| 1777844763 | 27.78° C | 34% | 1014.4 hPa | 0 mm | - | - | - |
| 1777843823 | 27.78° C | 33% | 1014.8 hPa | 0 mm | - | - | - |
| 1777842967 | 27.78° C | 31% | 1015 hPa | 0 mm | - | - | - |
| 1777842035 | 28.33° C | 37% | 1015.2 hPa | 0 mm | - | - | - |
| 1777841104 | 28.33° C | 31% | 1015.5 hPa | 0 mm | - | - | - |
| 1777840245 | 28.33° C | 33% | 1015.8 hPa | 0 mm | - | - | - |
* Rain latest hour (hover to see other rain measurements)
** Current wind speed in m/s (hover to see current wind gust speed)